Weather History for KGAG - November, 2012

Change the Weather History Date:

Friday, November 2, 2012

  Actual Average Record
Temperature  
Mean Temperature 67 °F -  
Max Temperature 82 °F 59 °F 84 °F (2008)
Min Temperature 52 °F 36 °F 10 °F (1991)
Cooling Degree Days 2    
Growing Degree Days 17 (Base 50)    
Moisture  
Dew Point 34 °F    
Average Humidity 36    
Maximum Humidity 61    
Minimum Humidity 12    
Precipitation  
Precipitation 0.00 in - - ()
Sea Level Pressure  
Sea Level Pressure 29.85 in    
Wind  
Wind Speed 12 mph (West)    
Max Wind Speed 18 mph    
Max Gust Speed 23 mph    
Visibility 10 miles    
Events      
Averages and records for this station are not official NWS values.
T = Trace of Precipitation, MM = Missing Value Source: NWS Daily Summary

Daily Weather History Graph

Daily Weather History Graph

Search for Another Location

Airport or City:

Trip Planner

Search our weather history database for the weather conditions in past years. The results will help you decide how hot, cold, wet, or windy it might be!

Date:

Astronomy

Nov. 02, 2012 Rise Set
Actual Time 8:03 AM CDT 6:41 PM CDT
Civil Twilight 7:36 AM CDT 7:07 PM CDT
Nautical Twilight 7:06 AM CDT 7:38 PM CDT
Astronomical Twilight 6:36 AM CDT 8:08 PM CDT
Moon 9:33 PM CDT (11/2) 11:21 AM CDT (11/2)
Length of Visible Light 11h 31m
Length of Day
10h 37m
Waning Gibbous, 87% of the Moon is Illuminated
Nov 2
Waning Gibbous
Nov 6
Last Quarter
Nov 13
New
Nov 20
First Quarter
Nov 28
Full

Hourly Weather History & Observations

Time (CDT) Temp. Dew Point Humidity Pressure Visibility Wind Dir Wind Speed Gust Speed Precip Events Conditions
12:53 AM 62.1 °F 37.9 °F 41% 29.83 in 10.0 mi South 15.0 mph - N/A   Clear
1:53 AM 61.0 °F 35.1 °F 38% 29.82 in 10.0 mi South 13.8 mph - N/A   Clear
2:53 AM 60.1 °F 34.0 °F 38% 29.82 in 10.0 mi SSW 11.5 mph - N/A   Clear
3:53 AM 54.0 °F 33.1 °F 45% 29.81 in 10.0 mi West 6.9 mph - N/A   Clear
4:53 AM 54.0 °F 33.1 °F 45% 29.80 in 10.0 mi SW 6.9 mph - N/A   Clear
5:53 AM 55.0 °F 34.0 °F 45% 29.81 in 10.0 mi SSW 11.5 mph - N/A   Clear
6:53 AM 55.0 °F 36.0 °F 49% 29.82 in 10.0 mi SSW 9.2 mph - N/A   Clear
7:53 AM 52.0 °F 36.0 °F 54% 29.83 in 10.0 mi South 11.5 mph - N/A   Clear
8:53 AM 55.0 °F 37.9 °F 53% 29.83 in 10.0 mi SSW 11.5 mph - N/A   Clear
9:53 AM 63.0 °F 39.9 °F 43% 29.83 in 10.0 mi SSW 11.5 mph - N/A   Clear
10:53 AM 73.0 °F 36.0 °F 26% 29.81 in 10.0 mi WSW 18.4 mph - N/A   Clear
11:53 AM 77.0 °F 32.0 °F 19% 29.81 in 10.0 mi WSW 15.0 mph 23.0 mph N/A   Clear
12:53 PM 79.0 °F 26.1 °F 14% 29.80 in 10.0 mi West 11.5 mph - N/A   Clear
1:53 PM 81.0 °F 23.0 °F 12% 29.79 in 10.0 mi West 12.7 mph - N/A   Clear
2:53 PM 82.0 °F 26.1 °F 13% 29.77 in 10.0 mi WNW 15.0 mph 19.6 mph N/A   Clear
3:53 PM 81.0 °F 30.0 °F 16% 29.78 in 10.0 mi NW 12.7 mph - N/A   Clear
4:53 PM 79.0 °F 30.0 °F 17% 29.81 in 10.0 mi NW 13.8 mph - N/A   Clear
5:53 PM 73.9 °F 33.1 °F 22% 29.84 in 10.0 mi North 11.5 mph - N/A   Clear
6:53 PM 64.9 °F 34.0 °F 32% 29.88 in 10.0 mi North 6.9 mph - N/A   Clear
7:53 PM 60.1 °F 35.1 °F 39% 29.92 in 10.0 mi North 5.8 mph - N/A   Clear
8:53 PM 57.9 °F 36.0 °F 44% 29.94 in 10.0 mi NNE 9.2 mph - N/A   Clear
9:53 PM 57.0 °F 37.9 °F 49% 29.96 in 10.0 mi NNE 10.4 mph - N/A   Clear
10:53 PM 54.0 °F 39.0 °F 57% 29.99 in 10.0 mi NE 11.5 mph - N/A   Clear
11:53 PM 52.0 °F 39.0 °F 61% 30.02 in 10.0 mi NNE 12.7 mph - N/A   Clear